Tracking 23610 objects as of 19-Sep-2021
HD Live streaming from Space Station
objects crossing your sky now

ONEWEB-0305

Track ONEWEB-0305 now!
10-day predictions
ONEWEB-0305 is classified as:


NORAD ID: 49093
Int'l Code: 2021-075U
Perigee: 511.2 km
Apogee: 540.2 km
Inclination: 87.4 °
Period: 95.0 minutes
Semi major axis: 6896 km
RCS: Unknown
Launch date: August 21, 2021
Source: United Kingdom (UK)
Launch site: TYURATAM MISSILE AND SPACE COMPLEX (TTMTR)
aabbcc
Your satellite tracking list
Your tracking list is empty




NASA's NSSDC Master Catalog

Two Line Element Set (TLE):
1 49093U 21075U   21262.16668981 -.00902039  00000-0 -50658-1 0  9998
2 49093  87.4256 356.4406 0021000 186.8323  29.7090 15.15786604  5590
Source of the keplerian elements: AFSPC